EW1065 Weather Reports


Display with metric or nautical units.
time (UTC)temp
F
wind
direction
speed
MPH
gust
MPH
rain 1hr
in
rain 24hr
in
rain mn
in
humidity
%
barometer
mb
20260831182520 94 315 1.0 3.0 0.00 0.00 0.00 57 1020.2
20260831181520 94 225 1.0 3.0 0.00 0.00 0.00 57 1020.3
20260831180518 93 203 1.0 4.0 0.00 0.00 0.00 57 1020.2
20260831175518 92 248 1.0 3.0 0.00 0.00 0.00 59 1020.2
20260831174520 92 225 2.0 4.0 0.00 0.00 0.00 58 1020.3
20260831173519 93 0.0 3.0 0.00 0.00 0.00 58 1020.3
20260831172520 92 338 1.0 4.0 0.00 0.00 0.00 61 1020.4
20260831171518 91 135 1.0 3.0 0.00 0.00 0.00 61 1020.6
20260831170518 92 203 1.0 4.0 0.00 0.00 0.00 61 1020.7
20260831164520 91 338 1.0 3.0 0.00 0.00 0.00 62 1020.7
20260831163558 90 293 1.0 3.0 0.00 0.00 0.00 63 1020.8
20260831162518 90 225 1.0 4.0 0.00 0.00 0.00 65 1020.9
20260831161520 89 225 1.0 3.0 0.00 0.00 0.00 65 1020.9
20260831160600 89 248 1.0 5.0 0.00 0.00 0.00 67 1020.9
20260831155518 89 248 2.0 7.0 0.00 0.00 0.00 65 1020.9
20260831154520 88 248 1.0 3.0 0.00 0.00 0.00 67 1020.9
20260831153518 87 248 1.0 2.0 0.00 0.00 0.00 71 1020.9
20260831152518 87 315 1.0 3.0 0.00 0.00 0.00 69 1020.8
20260831151520 87 315 1.0 5.0 0.00 0.00 0.00 71 1020.9
20260831150518 86 225 1.0 4.0 0.00 0.00 0.00 72 1021.0
20260831145518 85 0.0 5.0 0.00 0.00 0.00 76 1020.9
20260831144520 84 0.0 1.0 0.00 0.00 0.00 80 1021.0
20260831143520 82 0.0 2.0 0.00 0.00 0.00 83 1020.9
20260831142518 81 0.0 4.0 0.00 0.00 0.00 83 1020.9
20260831141518 80 0.0 0.0 0.00 0.00 0.00 86 1020.7
20260831140520 79 0.0 0.0 0.00 0.00 0.00 88 1020.7
20260831135518 77 0.0 0.0 0.00 0.00 0.00 91 1020.6
20260831134559 76 0.0 0.0 0.00 0.00 0.00 94 1020.6
20260831133518 75 0.0 0.0 0.00 0.00 0.00 96 1020.6
20260831132520 74 0.0 0.0 0.00 0.00 0.00 99 1020.6
20260831131518 73 0.0 0.0 0.00 0.00 0.00 100 1020.5
20260831130518 72 0.0 0.0 0.00 0.00 0.00 100 1020.4
20260831125520 72 0.0 0.0 0.00 0.00 0.00 100 1020.5
20260831124520 71 0.0 0.0 0.00 0.00 0.00 100 1020.3
20260831123558 70 0.0 0.0 0.00 0.00 0.00 99 1020.2
20260831122518 70 0.0 0.0 0.00 0.00 0.00 99 1020.2
20260831121600 69 0.0 0.0 0.00 0.00 0.00 99 1020.0
20260831120520 69 0.0 0.0 0.00 0.00 0.00 99 1020.0
20260831115518 69 0.0 0.0 0.00 0.00 0.00 99 1019.9
20260831114518 69 0.0 0.0 0.00 0.00 0.00 99 1019.9
20260831113520 68 0.0 0.0 0.00 0.00 0.00 99 1019.7
20260831112519 68 0.0 0.0 0.00 0.00 0.00 99 1019.7
20260831111520 69 0.0 0.0 0.00 0.00 0.00 99 1019.6
20260831110518 69 0.0 0.0 0.00 0.00 0.00 99 1019.7
20260831105518 69 0.0 0.0 0.00 0.00 0.00 99 1019.6
20260831104520 69 0.0 0.0 0.00 0.00 0.00 99 1019.7
20260831103520 69 0.0 0.0 0.00 0.00 0.00 99 1019.6
20260831102559 69 0.0 0.0 0.00 0.00 0.00 99 1019.5
20260831101518 70 0.0 0.0 0.00 0.00 0.00 99 1019.4
20260831100520 70 0.0 0.0 0.00 0.00 0.00 99 1019.3
20260831095520 70 0.0 0.0 0.00 0.00 0.00 99 1019.1
20260831094520 70 0.0 0.0 0.00 0.00 0.00 99 1019.0
20260831093558 70 0.0 0.0 0.00 0.00 0.00 99 1018.9
20260831092520 69 0.0 0.0 0.00 0.00 0.00 99 1018.9
20260831091519 69 0.0 0.0 0.00 0.00 0.00 99 1018.8
20260831090518 69 0.0 0.0 0.00 0.00 0.00 99 1018.8
20260831085520 69 0.0 0.0 0.00 0.00 0.00 99 1018.7
20260831084518 69 0.0 0.0 0.00 0.00 0.00 99 1018.5
20260831083558 68 0.0 0.0 0.00 0.00 0.00 98 1018.4
20260831082518 69 0.0 0.0 0.00 0.00 0.00 98 1018.6
20260831081518 69 0.0 0.0 0.00 0.00 0.00 98 1018.7
20260831080518 69 0.0 0.0 0.00 0.00 0.00 98 1018.5
20260831075520 69 0.0 0.0 0.00 0.00 0.00 98 1018.6
20260831074518 69 0.0 0.0 0.00 0.00 0.00 98 1018.7
20260831073519 69 0.0 0.0 0.00 0.00 0.00 98 1018.8
20260831072520 69 0.0 0.0 0.00 0.00 0.00 98 1018.8
20260831071520 69 0.0 0.0 0.00 0.00 0.00 98 1018.9
20260831070518 70 0.0 0.0 0.00 0.00 0.00 98 1018.9
20260831065518 70 0.0 0.0 0.00 0.00 0.00 98 1019.0
20260831064520 70 0.0 0.0 0.00 0.00 0.00 98 1018.9
20260831063518 70 0.0 0.0 0.00 0.00 0.00 98 1019.1
20260831062519 70 0.0 0.0 0.00 0.00 0.00 97 1019.1
20260831061518 70 0.0 0.0 0.00 0.00 0.00 97 1019.1
20260831060520 70 0.0 0.0 0.00 0.00 0.00 97 1019.2
20260831055519 70 0.0 0.0 0.00 0.00 0.00 97 1019.3
20260831054520 71 0.0 0.0 0.00 0.00 0.00 97 1019.2
20260831053519 71 0.0 0.0 0.00 0.00 0.00 97 1019.2
20260831052521 71 0.0 0.0 0.00 0.00 0.00 97 1019.2
20260831051559 71 0.0 0.0 0.00 0.00 0.00 97 1019.2
20260831050518 71 0.0 0.0 0.00 0.00 0.00 97 1019.2
20260831045520 71 0.0 0.0 0.00 0.00 0.00 97 1019.3
20260831044518 71 0.0 0.0 0.00 0.00 0.00 97 1019.3
20260831043518 71 0.0 0.0 0.00 0.00 0.00 97 1019.3
20260831042558 71 0.0 0.0 0.00 0.00 0.00 97 1019.3
20260831041520 71 0.0 0.0 0.00 0.00 0.00 97 1019.2
20260831040519 72 0.0 0.0 0.00 0.00 0.00 97 1019.2
20260831035520 72 0.0 0.0 0.00 0.00 0.00 97 1019.1
20260831034519 72 0.0 0.0 0.00 0.00 0.00 96 1019.0
20260831033559 72 0.0 0.0 0.00 0.00 0.00 96 1019.0
20260831032518 72 0.0 0.0 0.00 0.00 0.00 96 1019.1
20260831031559 72 0.0 0.0 0.00 0.00 0.00 96 1019.1
20260831030518 72 0.0 0.0 0.00 0.00 0.00 96 1019.2
20260831025519 72 0.0 0.0 0.00 0.00 0.00 96 1019.2
20260831024518 73 0.0 0.0 0.00 0.00 0.00 96 1019.2
20260831023518 73 0.0 0.0 0.00 0.00 0.00 96 1019.1
20260831022559 73 0.0 0.0 0.00 0.00 0.00 95 1019.0
20260831021518 73 0.0 0.0 0.00 0.00 0.00 95 1018.9
20260831020559 73 0.0 0.0 0.00 0.00 0.00 95 1018.8
20260831015520 74 0.0 0.0 0.00 0.00 0.00 95 1018.8
20260831014519 74 0.0 0.0 0.00 0.00 0.00 94 1018.7
20260831013519 74 0.0 0.0 0.00 0.00 0.00 94 1018.6
20260831012518 74 0.0 0.0 0.00 0.00 0.00 94 1018.4
20260831011519 75 0.0 0.0 0.00 0.00 0.00 93 1018.3
20260831010518 75 0.0 0.0 0.00 0.00 0.00 92 1018.2
20260831005520 76 0.0 0.0 0.00 0.00 0.00 92 1018.1
20260831004638 76 0.0 0.0 0.00 0.00 0.00 91 1018.0
20260831003518 77 0.0 0.0 0.00 0.00 0.00 89 1017.9
20260831002519 78 0.0 0.0 0.00 0.00 0.00 88 1017.9
20260831001558 79 0.0 0.0 0.00 0.00 0.00 86 1017.9
20260831000600 79 0.0 0.0 0.00 0.00 0.00 85 1017.9
20260830235518 81 0.0 0.0 0.00 0.00 0.00 84 1017.9
20260830234518 82 0.0 0.0 0.00 0.00 0.00 83 1017.7
20260830233518 83 0.0 0.0 0.00 0.00 0.00 80 1017.8
20260830232520 84 0.0 0.0 0.00 0.00 0.00 77 1017.9
20260830231518 86 0.0 0.0 0.00 0.00 0.00 73 1017.9
20260830230519 88 0.0 0.0 0.00 0.00 0.00 69 1017.8
20260830225518 90 0.0 0.0 0.00 0.00 0.00 62 1017.9
20260830224518 94 0.0 0.0 0.00 0.00 0.00 58 1018.0
20260830223518 95 0.0 0.0 0.00 0.00 0.00 55 1018.0
20260830222518 95 0.0 0.0 0.00 0.00 0.00 53 1018.0
20260830221518 94 0.0 0.0 0.00 0.00 0.00 57 1018.1
20260830220518 94 0.0 0.0 0.00 0.00 0.00 54 1018.2
20260830215520 94 0.0 0.0 0.00 0.00 0.00 53 1018.3
20260830214558 94 0.0 1.0 0.00 0.00 0.00 53 1018.5
20260830213518 92 0.0 2.0 0.00 0.00 0.00 52 1018.6
20260830212559 92 0.0 1.0 0.00 0.00 0.00 55 1018.6
20260830211518 92 0.0 0.0 0.00 0.00 0.00 53 1018.6
20260830210518 91 0.0 0.0 0.00 0.00 0.00 61 1018.7
20260830205518 92 0.0 0.0 0.00 0.00 0.00 52 1018.9
20260830204518 91 0.0 0.0 0.00 0.00 0.00 64 1018.9
20260830203518 90 0.0 0.0 0.00 0.00 0.00 60 1018.9
20260830202518 90 0.0 0.0 0.00 0.00 0.00 63 1018.9
20260830201518 89 0.0 0.0 0.00 0.00 0.00 57 1019.0
20260830200518 90 0.0 2.0 0.00 0.00 0.00 53 1019.1
20260830195518 92 0.0 2.0 0.00 0.00 0.00 51 1019.2
20260830194520 92 0.0 1.0 0.00 0.00 0.00 51 1019.3
20260830193518 93 0.0 2.0 0.00 0.00 0.00 46 1019.3
20260830192559 94 0.0 3.0 0.00 0.00 0.00 46 1019.5
20260830191559 94 0.0 2.0 0.00 0.00 0.00 46 1019.8
20260830190521 94 0.0 3.0 0.00 0.00 0.00 44 1019.9
20260830185518 93 0.0 1.0 0.00 0.00 0.00 49 1020.1
20260830184518 91 0.0 3.0 0.00 0.00 0.00 51 1020.3
20260830183558 89 0.0 2.0 0.00 0.00 0.00 54 1020.4